User: anonymous   Login
Location: Caltech
(34.1382°N, 118.1253°W)
Time: 21:48:39
(UTC-07:00)
Language:

ADEOS II - Orbit

View from above orbital plane
View from above orbital plane
View from above satellite
View from above satellite

Ground track
Ground track

The orbit data is extracted from the following two-line orbital elements,

1 27597U 02056A   15242.52432907  .00000080  00000-0  49583-4 0  9990
2 27597 098.2925 232.1585 0002278 093.4100 014.3770 14.27119767661751
Epoch (UTC): 30 August 2015 12:35:02
Eccentricity: 0.0002278
inclination: 98.2925°
perigee height: 800 km
apogee height: 803 km
right ascension of ascending node: 232.1585°
argument of perigee: 93.4100°
revolutions per day: 14.27119767
mean anomaly at epoch: 14.3770°
orbit number at epoch: 66175

The dashed part of the orbit path shows where the satellite is in the earth's shadow,  

DLR